www.pogodaiklimat.ru

Погода и климат >> Архив погоды >> Таиланд >> Пхетчабури


ПОГОДА в Пхетчабури

  • Прогноз погоды в Пхетчабури
  • Монитор погоды в Пхетчабури

АРХИВ ПОГОДЫ в Пхетчабури

Время (UTC), дата Ветер
(напр.,м/с)
 
Видим.   Явления Облачность Т
(С)
Тd
(С)
f
(%)
Тe
(С)
Тes
(С)
Комфортность P
(гПа)
Po
(гПа)
Тmin
(С)
Tmax
(С)
R
(мм)
R24
(мм)
S
(см)
12 11.02 Ю 15 11 км 3/0
[Cs]
+29.0 +25.9 83 +43 +43 опасность
перегрева
1012.9 1012.5 +34.8
15 11.02 ЮЗ 10 11 км 3/0
[Cs]
+28.5 +25.1 82 +41 +41 опасность
перегрева
1015.2 1014.8
18 11.02 ЮЗ 8 11 км 3/0
[Cs]
+27.9 +24.4 81 +39 +39 очень
душно
1015.5 1015.1
21 11.02 ЮЗ 5 11 км 3/0
[Cs]
+26.3 +22.9 82 +35 +35 очень
душно
1014.5 1014.1
00 12.02 ЮЗ 8 11 км 8/0
[Cs]
+25.3 +23.1 88 +34 +34 очень
душно
1015.8 1015.3 +24.3
03 12.02 штиль 0 8000 м дымка 6/0
[Cs]
+29.0 +24.7 78 +41 +55 опасность
перегрева
1018.3 1017.9
06 12.02 В 6 11 км 4/0
[Cs]
+32.8 +26.1 68 +49 +55 опасность
перегрева
1016.9 1016.5
09 12.02 штиль 0 11 км 4/0
[Cs]
+32.6 +25.9 68 +48 +55 опасность
перегрева
1013.9 1013.5
12 12.02 ЮЗ 5 11 км 4/0
[Cs]
+29.7 +25.2 77 +43 +43 опасность
перегрева
1014.6 1014.1 +34.3
15 12.02 ЮЗ 8 11 км 3/0
[Cs]
+27.8 +24.6 83 +39 +39 очень
душно
1016.6 1016.2
18 12.02 штиль 0 11 км 3/0
[Cs]
+26.6 +24.0 86 +37 +37 очень
душно
1016.0 1015.6
21 12.02 штиль 0 11 км 3/0
[Cs]
+25.2 +23.4 90 +34 +34 очень
душно
1014.8 1014.4
00 13.02 штиль 0 11 км 8/0
[Cs]
+24.6 +23.1 91 +33 +33 очень
душно
1016.3 1015.8 +24.2
03 13.02 СЗ 3 6000 м дымка 4/0
[Cs]
+29.8 +24.8 75 +43 +52 опасность
перегрева
1017.4 1017.0
06 13.02 ЮВ 3 8000 м дымка 6/0
[Cs]
+33.2 +26.2 67 +49 +62 опасность
перегрева
1014.9 1014.5
09 13.02 Ю 10 8000 м дымка 4/0
[Cs]
+33.0 +26.8 70 +51 +51 опасность
перегрева
1012.2 1011.8
12 13.02 Ю 8 8000 м дымка 4/0
[Cs]
+30.5 +25.6 75 +45 +45 опасность
перегрева
1013.4 1013.0 +34.2
15 13.02 ЮЗ 10 11 км 4/0
[Cs]
+28.5 +25.1 82 +41 +41 опасность
перегрева
1014.8 1014.4
18 13.02 ЮЗ 10 11 км 4/0
[Cs]
+27.5 +25.2 87 +40 +40 очень
душно
1013.9 1013.4
21 13.02 ЮЗ 8 11 км 4/0
[Cs]
+26.7 +24.2 86 +37 +37 очень
душно
1012.3 1011.9
00 14.02 ЮЗ 8 8000 м дымка 6/0
[Cs]
+26.6 +24.3 87 +37 +37 очень
душно
1013.9 1013.5 +25.5
03 14.02 Ю 5 8000 м дымка 4/0
[Cs]
+28.8 +25.4 82 +42 +48 опасность
перегрева
1015.4 1015.0
06 14.02 Ю 4 8000 м дымка 4/0
[Cs]
+33.2 +26.4 68 +50 +61 опасность
перегрева
1013.3 1012.9
09 14.02 ЮЗ 6 11 км 3/0
[Cs]
+32.7 +25.8 67 +48 +50 опасность
перегрева
1011.2 1010.7
12 14.02 Ю 11 11 км 3/0
[Cs]
+29.0 +25.5 81 +43 +43 опасность
перегрева
1012.2 1011.8 +34.8
15 14.02 ЮЗ 9 11 км 3/0
[Cs]
+27.8 +24.0 80 +39 +39 очень
душно
1013.5 1013.1
18 14.02 ЮЗ 13 11 км 4/0
[Cs]
+27.6 +24.6 84 +39 +39 очень
душно
1013.0 1012.6
21 14.02 З 7 11 км 4/0
[Cs]
+26.8 +24.0 85 +37 +37 очень
душно
1012.1 1011.7
00 15.02 ЮЗ 5 8000 м дымка 6/0
[Cs]
+26.0 +23.7 87 +35 +36 очень
душно
1013.7 1013.2 +25.3
03 15.02 ЮЗ 8 8000 м дымка 6/0
[Cs]
+28.8 +24.8 79 +41 +43 опасность
перегрева
1015.3 1014.9
06 15.02 Ю 6 11 км 4/0
[Cs]
+32.8 +25.8 67 +48 +55 опасность
перегрева
1013.6 1013.2
09 15.02 Ю 8 11 км 3/0
[Cs]
+32.5 +25.5 67 +47 +48 опасность
перегрева
1011.9 1011.5
12 15.02 Ю 4 11 км 3/0
[Cs]
+29.1 +25.4 80 +42 +42 опасность
перегрева
1012.7 1012.2 +34.8
15 15.02 Ю 10 11 км 3/0
[Cs]
+28.0 +24.3 80 +39 +39 очень
душно
1014.9 1014.4
18 15.02 ЮЗ 18 11 км 3/0
[Cs]
+28.0 +24.8 83 +40 +40 очень
душно
1014.2 1013.8
21 15.02 ЮЗ 10 11 км 3/0
[Cs]
+26.5 +23.3 83 +36 +36 очень
душно
1013.1 1012.7
00 16.02 З 5 11 км 6/0
[Cs]
+25.3 +23.4 89 +34 +34 очень
душно
1014.3 1013.9 +24.8
03 16.02 ЮВ 8 8000 м дымка 4/1 600 м
[Cu hum Cs]
+28.7 +24.4 78 +41 +42 опасность
перегрева
1015.8 1015.3
06 16.02 Ю 7 11 км 3/0
[Cs]
+33.0 +25.3 64 +47 +52 опасность
перегрева
1013.6 1013.2
09 16.02 Ю 13 11 км 3/0
[Cs]
+33.1 +26.0 66 +49 +49 опасность
перегрева
1010.8 1010.3
12 16.02 Ю 12 11 км 4/0
[Cs]
+29.5 +26.0 81 +44 +44 опасность
перегрева
1011.5 1011.1 +35.2
15 16.02 Ю 6 11 км 4/0
[Cs]
+28.6 +25.6 84 +42 +42 опасность
перегрева
1013.9 1013.5
18 16.02 ЮЗ 10 11 км 4/0
[Cs]
+26.6 +22.8 80 +35 +35 очень
душно
1012.3 1011.9
21 16.02 Ю 10 11 км 4/0
[Cs]
+27.0 +22.6 77 +36 +36 очень
душно
1011.7 1011.3
00 17.02 ЮЗ 8 8000 м дымка 6/0
[Ac lent Cs]
+27.0 +22.7 77 +36 +36 очень
душно
1012.9 1012.5 +25.5
03 17.02 Ю 8 8000 м дымка 8/0
[Ac lent Cs]
+28.9 +23.2 71 +39 +40 очень
душно
1014.9 1014.4
06 17.02 Ю 15 11 км 6/0
[Ac lent Cs]
+32.7 +25.4 66 +47 +47 опасность
перегрева
1012.4 1011.9
09 17.02 Ю 12 11 км 6/1 600 м
[Cu med, cong Ac lent Cs]
+32.1 +25.6 69 +47 +47 опасность
перегрева
1009.5 1009.0
12 17.02 Ю 10 11 км в посл. час дождь 9/4 600 м
[Sc Ac As Cs]
+29.0 +24.9 79 +42 +42 опасность
перегрева
1010.7 1010.3 +34.3 0.0
15 17.02 ЮЗ 8 11 км 4/0
[Cs]
+27.5 +23.3 78 +37 +37 очень
душно
1011.8 1011.4
18 17.02 ЮЗ 12 11 км 4/0
[Cs]
+27.2 +24.0 83 +38 +38 очень
душно
1011.4 1010.9
21 17.02 ЮЗ 8 11 км 8/3 600 м
[Sc Ac lent Cs]
+26.6 +23.4 83 +36 +36 очень
душно
1010.1 1009.7
00 18.02 З 3 11 км 8/3 600 м
[Sc Ac lent Cs]
+25.0 +23.1 89 +33 +33 очень
душно
1011.7 1011.3 +24.5 0.0
03 18.02 ЮЗ 10 8000 м дымка 3/1 600 м
[Sc Ac lent Cs]
+28.5 +23.4 74 +39 +39 очень
душно
1014.5 1014.0
06 18.02 Ю 10 11 км 3/0
[Cs]
+33.0 +26.3 68 +49 +50 опасность
перегрева
1012.3 1011.9

 

Местоположение метеостанции Пхетчабури (Таиланд): широта 13.15 долгота 100.06 высота над уровнем моря 4 м.

В архиве по умолчанию представлена погода в Пхетчабури за последнюю неделю. Архивные данные за месяц целиком и за предыдущие месяцы, начиная с января 2011 года, Вы можете получить, выбрав интересующий диапазон дат из раскрывающегося списка и нажав кнопку "Ввод!".


*Определитесь, кто Вы:
робот инопланетянин человек

Внимание! Время в таблицах - всемирное. Для получения местного времени необходимо прибавить поправку, которая равна 7 ч.

Смотрите также архив погоды в соседних городах и на ближайших метеорологических станциях:

Погода в Самутсонгкхраме (Таиланд) (29 км)
Погода в Бангкок Пилот (Таиланд) (64 км)
Погода в Хуахине (Таиланд) (65 км)
Погода в Нонг Флуб Агромете (Таиланд) (73 км)
Погода на Ко Сичан (Таиланд) (80 км)
Погода в Бангкоке 2 (Таиланд) (82 км)
Погода в Бангна Агромете (Таиланд) (84 км)
Погода в Бангкоке (Таиланд) (84 км)
Погода в Самутрудкан Агромете (Таиланд) (85 км)
Погода в Паттайе (Таиланд) (90 км)

Пояснения к столбцам:

Ветер - указаны скорость ветра в м/с - средняя за 10 мин, порывы в срок и между сроками (в фигурных скобках) и направление, откуда дует ветер: С - северный, СВ - северо-восточный, В - восточный, ЮВ - юго-восточный, Ю - южный, ЮЗ - юго-западный, З - западный, СЗ - северо-западный.
Видимость - горизонтальная дальность видимости в метрах или километрах. При видимости от 1 до 10 км при отсутствии осадков обычно наблюдается дымка, при ухудшении видимости до 1 км и менее - туман. В сухую погоду видимость может ухудшаться дымом, пылью или мглою.
Явления - указаны атмосферные явления, наблюдавшиеся в срок или в последний час перед сроком; фигурными скобками обозначены явления, наблюдавшиеся между сроками (за 1-3 часа до срока); квадратными скобками обозначены град или гололедные отложения с указанием их диаметра в мм.
Облачность - указаны через наклонную черту общая и нижняя облачность в баллах и высота нижней границы облаков в метрах; квадратными скобками обозначены формы облаков: Ci - перистые, Cs - перисто-слоистые, Cc - перисто-кучевые, Ac - высококучевые, As - высокослоистые, Sc - слоисто-кучевые, Ns - слоисто-дождевые, Cu - кучевые, Cb - кучево-дождевые. Подробнее классификацию облаков см. в Атласе облаков (PDF).
T - Температура воздуха - температура, измеренная на высоте 2 м над землей.
Td - Температура точки росы - температура, при понижении до которой содержащийся в воздухе водяной пар достигнет насыщения.
f - Относительная влажность воздуха - влажноcть воздуха, измеренная на высоте 2 м над землей.
Te - Эффективная температура - температура, которую ощущает одетый по сезону человек в тени. Характеристика душности погоды. При расчете учитывается влияние влажности воздуха и скорости ветра на теплоощущения человека.
Tes - Эффективная температура на солнце - температура, которую ощущает человек, с поправкой на солнечный нагрев. Характеристика знойности погоды. Зависит от высоты солнца над горизонтом, облачности и скорости ветра. Ночью, в пасмурную погоду, а также при ветре 12 м/с и более поправка равна нулю.
P - Атмосферное давление - приведенное к уровню моря атмосферное давление.
Po - Атмосферное давление - измеренное на уровне метеостанции атмосферное давление.
Tmin - Минимальная температура - минимум температуры воздуха на высоте 2 м над землей.
Tmax - Максимальная температура - максимум температуры воздуха на высоте 2 м над землей.
R - Количество осадков - Количество выпавших осадков за период времени, мм. При наведении курсора мыши на число - период времени, за который выпало указанное количество осадков.
R24 - Количество осадков - Количество выпавших осадков за 24 часа, мм.
S - Снежный покров - Высота снежного покрова, см. При наведении курсора мыши на число - состояние снежного покрова и степень покрытия местности в баллах.